This demonstration page uses our WeatherBlox Daily Observations layout. Learn more.

Left ArrowRight Arrow

34.16533, -84.80231

Hourly Observations for August 6, 2017

Temp ( °F °C ) Dew Point ( °F °C ) Humidity (%) Winds ( mph kmh ) Pressure ( in mb ) Visibility ( mi km ) Precip ( " mm )
12:53 am 00:53 Cloudy 69 20.6 68 20 96 96 SSE 5 7 30.02 1017 10 16 0.00 0.00
1:53 am 01:53 Partly Cloudy 69 20.6 67 19.4 93 93 Calm 30.01 1016 10 16 0.00 0.00
2:53 am 02:53 Mostly Cloudy 67 19.4 67 19.4 100 100 Calm 30.00 1016 10 16 0.00 0.00
3:53 am 03:53 Mostly Cloudy 68 20 67 19.4 96 96 Calm 30.00 1016 10 16 0.00 0.00
4:53 am 04:53 Clear 68 20 68 20 100 100 Calm 30.02 1017 10 16 0.00 0.00
5:53 am 05:53 Partly Cloudy 67 19.4 67 19.4 100 100 Calm 30.03 1017 10 16 0.00 0.00
6:53 am 06:53 Clear 67 19.4 65 18.3 93 93 Calm 30.03 1017 10 16 0.00 0.00
7:53 am 07:53 Sunny 70 21.1 65 18.3 84 84 Calm 30.04 1017 10 16 0.00 0.00
8:53 am 08:53 Sunny 73 22.8 66 18.9 79 79 NE 5 7 30.06 1018 10 16 0.00 0.00
9:53 am 09:53 Sunny 77 25 68 20 74 74 E 6 9 30.05 1018 10 16 0.00 0.00
10:53 am 10:53 Sunny 82 27.8 71 21.7 69 69 VRB 6 9 30.05 1018 10 16 0.00 0.00
11:29 am 11:29 Mostly Cloudy 82 27.8 72 22.2 72 72 VRB 7 11 30.03 1017 10 16 0.00 0.00
11:38 am 11:38 Mostly Cloudy 82 27.8 72 22.2 72 72 N 5 7 30.03 1017 10 16 0.00 0.00
11:49 am 11:49 Cloudy with Rain 75 24 75 24 100 100 NNW 6 9 30.06 1018 2 2 0.11 2.79
11:53 am 11:53 Cloudy with Heavy Rain 75 23.9 75 23.9 100 100 N 6 9 30.04 1017 1 2 0.16 4.06
12:01 pm 12:01 Cloudy with Light Rain 77 25 75 23.9 94 94 NNE 6 9 30.00 1016 3 5 0.01 0.25
12:26 pm 12:26 Cloudy 76 24.4 75 23.9 97 97 Calm 30.06 1018 9 14 0.02 0.51
12:33 pm 12:33 Cloudy with Heavy Rain 75 23.9 74 23.3 96 96 NNE 5 7 30.06 1018 2 3 0.07 1.78
12:38 pm 12:38 Cloudy with Light Rain 77 25 74 23.3 90 90 N 6 9 30.00 1016 2 3 0.08 2.03
12:42 pm 12:42 Cloudy with Light Rain 77 25 74 23.3 90 90 NNE 5 7 30.00 1016 6 10 0.08 2.03
12:53 pm 12:53 Cloudy 78 25.6 73 22.8 85 85 Calm 30.03 1017 10 16 0.08 2.03
1:53 pm 13:53 Cloudy with Light Rain 78 25.6 76 24.4 93 93 Calm 30.03 1017 10 16 0.00 0.03
2:53 pm 14:53 Partly Cloudy 85 29.4 75 23.9 72 72 N 7 11 30.00 1016 10 16 0.00 0.03
3:53 pm 15:53 Mostly Cloudy 86 30 73 22.8 65 65 VRB 6 9 29.96 1015 10 16 0.00 0.00
4:33 pm 16:33 Mostly Cloudy with Nearby Thunderstorms 87 30.6 72 22.2 61 61 SSE 5 7 29.97 1015 10 16 0.00 0.00
4:53 pm 16:53 Cloudy with Nearby Thunderstorms 80 26.7 71 21.7 74 74 SSW 9 15 29.97 1015 10 16 0.00 0.00
5:03 pm 17:03 Cloudy with Thunderstorms 78 25.6 72 22.2 82 82 SSW 7 11 30.00 1016 10 16 0.00 0.00
5:18 pm 17:18 Mostly Cloudy with Nearby Thunderstorms 75 23.9 73 22.8 94 94 S 8 13 30.03 1017 5 8 0.02 0.51
5:38 pm 17:38 Mostly Cloudy 76 24.4 74 23.3 94 94 SSW 3 6 30.00 1016 10 16 0.02 0.51
5:53 pm 17:53 Partly Cloudy with Nearby Thunderstorms 79 26.1 75 23.9 88 88 VRB 3 6 29.97 1015 10 16 0.02 0.51
6:02 pm 18:02 Sunny 81 27.2 74 23.3 79 79 Calm 30.00 1016 10 16 0.00 0.00
6:53 pm 18:53 Sunny 79 26.1 74 23.3 85 85 VRB 5 7 29.98 1015 10 16 0.00 0.00
7:53 pm 19:53 Sunny 78 25.6 75 23.9 90 90 Calm 29.97 1015 10 16 0.00 0.00
8:24 pm 20:24 Mostly Cloudy with Nearby Thunderstorms 77 25 74 23.3 90 90 S 13 20 30.00 1016 9 14 0.00 0.00
8:30 pm 20:30 Mostly Cloudy with Strong Thunderstorms 75 23.9 74 23.3 96 96 VRB 7 11 30.03 1017 3 4 0.09 2.29
8:48 pm 20:48 Cloudy with Strong Thunderstorms 73 23 73 23 100 100 S 5 7 30.03 1017 1 2 0.32 8.13
8:53 pm 20:53 Cloudy with Thunderstorms 74 23.3 74 23.3 100 100 Calm 30.00 1016 3 4 0.32 8.13
9:00 pm 21:00 Cloudy with Nearby Thunderstorms 74 23.3 74 23.3 100 100 Calm 30.03 1017 10 16 0.00 0.03
9:16 pm 21:16 Cloudy 74 23.3 74 23.3 100 100 S 3 6 30.03 1017 10 16 0.00 0.03
9:53 pm 21:53 Cloudy 74 23.3 74 23.3 100 100 Calm 30.02 1017 10 16 0.00 0.03
10:53 pm 22:53 Mostly Cloudy 74 23.3 74 23.3 100 100 Calm 30.01 1016 10 16 0.03 0.76
11:53 pm 23:53 Cloudy 74 23.3 74 23.3 100 100 Calm 30.01 1016 10 16 0.00 0.00

Powered by AerisWeather